Estación de Socoroma INIA

Ultimos registro cada 15 minutos 25
Estación Fecha / Hora Temperatura Humedad Lluvia Velocidad Dirección Radiación Presion
25 Socoroma INIA 04-09-2026 06:00 9,2 18,1 0 1,2 132 0 701,5
24 Socoroma INIA 04-09-2026 05:45 9 19,9 0 2 157 0 701,5
23 Socoroma INIA 04-09-2026 05:30 8,8 22,9 0 2,1 150 0 701,5
22 Socoroma INIA 04-09-2026 05:15 8,9 22,3 0 1,8 148 0 701,6
21 Socoroma INIA 04-09-2026 05:00 8,9 23 0 2,3 148 0 701,6
20 Socoroma INIA 04-09-2026 04:45 9 22,7 0 2,3 143 0 701,5
19 Socoroma INIA 04-09-2026 04:30 8,6 22,9 0 2,2 152 0 701,6
18 Socoroma INIA 04-09-2026 04:15 8,7 25,6 0 2,4 145 0 701,7
17 Socoroma INIA 04-09-2026 04:00 8,8 24,6 0 2,8 136 0 701,7
16 Socoroma INIA 04-09-2026 03:45 8,8 23,9 0 2,8 140 0 701,7
15 Socoroma INIA 04-09-2026 03:30 8,9 26,2 0 2,6 137 0 701,8
14 Socoroma INIA 04-09-2026 03:15 9,2 28,1 0 2 153 0 701,8
13 Socoroma INIA 04-09-2026 03:00 9,2 25,8 0 2,3 152 0 702,2
12 Socoroma INIA 04-09-2026 02:45 9,1 27,8 0 1,8 137 0 702,3
11 Socoroma INIA 04-09-2026 02:30 8,9 26,2 0 2,1 148 0 702,5
10 Socoroma INIA 04-09-2026 02:15 8,5 27,5 0 2,5 144 0 702,4
9 Socoroma INIA 04-09-2026 02:00 8,6 27,6 0 2,4 148 0 702,5
8 Socoroma INIA 04-09-2026 01:45 9,1 27 0 1,6 138 0 702,5
7 Socoroma INIA 04-09-2026 01:30 9,1 27,9 0 2 132 0 702,6
6 Socoroma INIA 04-09-2026 01:15 9,3 26,6 0 2,6 136 0 702,7
5 Socoroma INIA 04-09-2026 01:00 9,5 26,4 0 2,6 135 0 702,8
4 Socoroma INIA 04-09-2026 00:45 9,8 26,7 0 2,4 142 0 702,8
3 Socoroma INIA 04-09-2026 00:30 10 27,7 0 1,3 154 0 702,8
2 Socoroma INIA 04-09-2026 00:15 10 26,8 0 0,7 133 0 703
1 Socoroma INIA 04-09-2026 00:00 9,8 28,3 0 1,3 135 0 703,1